[Iaude] MPEC Q05: 2020 PP3 [a=1.20,e=0.27,i=9.4,H=24.8]

mpec at marsden.cfa.harvard.edu mpec at marsden.cfa.harvard.edu
Sun Aug 16 06:23:59 EDT 2020


M.P.E.C. 2020-Q05                               Issued 2020 August 16, 10:22 UT

     The Minor Planet Electronic Circulars contain information on unusual
         minor planets and routine data on comets.  They are published
    on behalf of Division F of the International Astronomical Union by the
          Minor Planet Center, Smithsonian Astrophysical Observatory,
                          Cambridge, MA 02138, U.S.A.

             Prepared using the Tamkin Foundation Computer Network

                              MPC at CFA.HARVARD.EDU
            URL https://www.minorplanetcenter.net/    ISSN 1523-6714

                                    2020 PP3                                    


Observations:
     K20P03P  C2020 08 11.45693 23 18 02.38 +18 37 56.7          21.3 GVEQ005G96
     K20P03P  C2020 08 11.47556 23 18 11.54 +18 37 59.4          21.4 GVEQ005G96
     K20P03P* C2020 08 14.35594 23 48 33.11 +18 36 39.4          20.7 GVEQ005G96
     K20P03P  C2020 08 14.36018 23 48 36.08 +18 36 38.3          20.1 GVEQ005G96
     K20P03P  C2020 08 14.36442 23 48 39.07 +18 36 37.0          20.6 GVEQ005G96
     K20P03P  C2020 08 14.36866 23 48 42.04 +18 36 35.7          20.7 GVEQ005G96
     K20P03P  C2020 08 14.46518 23 49 50.06 +18 35 58.5          20.7 GVEQ005G96
     K20P03P  C2020 08 14.48063 23 50 01.06 +18 35 51.3          20.2 GVEQ005G96
     K20P03P  C2020 08 14.48149 23 50 01.68 +18 35 50.7          20.3 GVEQ005G96
     K20P03P  C2020 08 14.48190 23 50 01.95 +18 35 50.4          20.4 GVEQ005G96
     K20P03P KC2020 08 15.29937500 01 00.28 +18 28 33.6          20.4 VuEQ005H21
     K20P03P KC2020 08 15.30228700 01 02.59 +18 28 32.0          20.6 VuEQ005H21
     K20P03P KC2020 08 15.30519500 01 04.92 +18 28 30.3          20.7 VuEQ005H21
     K20P03P KC2020 08 15.30829500 01 07.40 +18 28 28.4          20.6 VuEQ005H21
     K20P03P  C2020 08 15.34389 00 01 38.96 +18 28 18.8          19.8 GVEQ005I52
     K20P03P  C2020 08 15.34488 00 01 39.71 +18 28 18.2          20.4 GVEQ005I52
     K20P03P  C2020 08 15.34686 00 01 41.31 +18 28 16.9          20.2 GVEQ005I52
     K20P03P  C2020 08 15.99252 00 11 09.46 +18 18 50.5          20.4 VVEQ005033
     K20P03P  C2020 08 15.99402 00 11 10.78 +18 18 49.3          20.4 VVEQ005033
     K20P03P  C2020 08 15.99552 00 11 12.09 +18 18 48.0          20.6 VVEQ005033
     K20P03P KC2020 08 16.01632900 11 34.973+18 19 11.03         20.0 GVEQ005J04
     K20P03P KC2020 08 16.01779900 11 36.286+18 19 09.87         19.9 GVEQ005J04
     K20P03P KC2020 08 16.01925800 11 37.559+18 19 08.63         19.9 GVEQ005J04
     K20P03P KC2020 08 16.38105 00 17 10.88 +18 12 37.5          20.2 GVEQ005H36
     K20P03P KC2020 08 16.38839 00 17 17.61 +18 12 28.8          21.2 GVEQ005H36

Observer details:
033 Karl Schwarzschild Observatory, Tautenburg.  Observers S. Melnikov, U.
    Laux, B. Stecklum.  Measurer B. Stecklum.  1.34-m f/3 Schmidt + CCD.
G96 Mt. Lemmon Survey.  Observers T. A. Pruyne, G. J. Leonard.  Measurers B.
    Gray, D. Rankin, F. C. Shelly, E. J. Christensen, G. A. Farneth, D. C.
    Fuls, A. R. Gibbs, A. D. Grauer, H. Groeller, R. A. Kowalski, S. M.
    Larson, G. J. Leonard, T. A. Pruyne, R. L. Seaman, K. W. Wierzchos.  1.5-m
    reflector + 10K CCD.
H21 Astronomical Research Observatory, Westfield.  Observer R. Holmes.
    Measurers S. Foglia, L. Buzzi, T. Linder, R. Holmes.  0.76-m f/3.0
    astrograph + CCD.
H36 Sandlot Observatory, Scranton.  Observer G. Hug.  0.56-m reflector + CCD.
I52 Steward Observatory, Mt. Lemmon Station.  Observer K. W. Wierzchos.
    Measurers E. J. Christensen, G. A. Farneth, D. C. Fuls, A. R. Gibbs, A. D.
    Grauer, H. Groeller, R. A. Kowalski, S. M. Larson, G. J. Leonard, T. A.
    Pruyne, D. Rankin, R. L. Seaman, F. C. Shelly, K. W. Wierzchos.  1.0-m
    reflector + CCD.
J04 ESA Optical Ground Station, Tenerife.  Observer E. Kuusela.  Measurers M.
    Micheli, D. Koschny, L. Conversi, M. Busch, E. Schwab, A. Knofel.  1.0-m
    f/4.4 reflector + CCD.

Orbital elements:
2020 PP3                                                 Earth MOID = 0.0110 AU
Epoch 2020 May 31.0 TT = JDT 2459000.5                  Veres
M 253.72464              (2000.0)            P               Q
n   0.74582167     Peri.  252.35173     +0.72060966     -0.68881273
a   1.2042391      Node   151.02881     +0.68180396     +0.68326224
e   0.2731716      Incl.    9.40024     +0.12595663     +0.24225963
P   1.32           H   24.8           G   0.15           U   7
Residuals in seconds of arc
200811 G96  0.2+  0.2-    200814 G96  0.1-  0.1-    200815 033  0.3-  0.1-
200811 G96  0.3-  0.0     200815 H21  0.3-  0.1-    200815 033  0.4-  0.1-
200814 G96  0.2-  0.2-    200815 H21  0.4-  0.1+    200816 J04  0.1+  0.2+
200814 G96  0.2-  0.0     200815 H21  0.2-  0.1+    200816 J04  0.3+  0.1+
200814 G96  0.1+  0.1-    200815 H21  0.1+  0.1+    200816 J04  0.1+  0.0
200814 G96  0.1+  0.1-    200815 I52  0.4+  0.4+    200816 H36  0.1-  0.2-
200814 G96  0.4+  0.0     200815 I52  0.1-  0.4+    200816 H36  0.5+  0.5-
200814 G96  0.1+  0.2+    200815 I52  0.2+  0.3+
200814 G96  0.2+  0.0     200815 033  0.2-  0.2-

Ephemeris:
2020 PP3                 a,e,i = 1.20, 0.27, 9                   q = 0.8753
Date    TT    R. A. (2000) Decl.     Delta      r    Elong.  Phase     V
2020 07 17    21 46 13.0 +13 48 08   0.2273  1.1862   134.2    37.9    23.5
...
2020 08 01    22 20 45.8 +17 03 47   0.1367  1.1200   137.8    37.5    22.2
...
2020 08 09    22 59 05.6 +18 24 14   0.09344 1.0844   137.4    39.3    21.4
...
2020 08 15    23 56 50.8 +18 32 25   0.06483 1.0580   132.9    44.5    20.7
2020 08 16    00 11 12.5 +18 20 05   0.06064 1.0537   131.3    46.2    20.6
2020 08 17    00 27 29.6 +18 00 08   0.05670 1.0493   129.3    48.3    20.5
...
2020 08 23    02 51 54.8 +11 02 56   0.04175 1.0236   106.1    71.6    20.5
...
2020 08 31    06 05 48.2 -04 59 51   0.05613 0.9908    69.2   107.8    22.6
...
2020 09 15    08 04 19.1 -12 46 02   0.1269  0.9365    53.9   119.8    25.0

M. P. C. Staff               (C) Copyright 2020 MPC           M.P.E.C. 2020-Q05




More information about the Iaude mailing list